Weather in Svetly

Russia / Stavropol Krai     45˚32′51″N   41˚18′55″E
temp.,
°C
wind,
m/s
gust,
m/s
humid.,
%
clouds,
%
prec.,
mm/h
press.,
hPa
HPBL,
m
17 january, sun
sun1700:00−2˚ene4781100 0.0 1015306
03:00−3˚ene71178100 0.0 1013429
06:00−3˚e91584100 0.1 1011675
09:00−2˚e101692100 2.3 1008822
12:00e111682100 0.1 1005998
15:00e81385100 0.8 1004787
18:00e91483100 0.1 1004671
21:00−1˚e61188100 0.8 1003574
18 january, mon
mon1800:00−1˚e61196100 4.7 1004463
03:00−2˚e6997100 9.8 1005259
06:00−2˚ssw1198100 1.2 100883
09:00−5˚wsw91593100 1.4 1011572
12:00−5˚w71092100 0.1 1013559
15:00−6˚w6991100 0.1 1015556
18:00−7˚w3794100 0.1 1017487
21:00−8˚wsw3596100 0.1 1018135
19 january, tue
tue1900:00−8˚w2396100 0.0 101956
03:00−8˚w2296100 0.0 101952
06:00−9˚s129466 0.0 101921
09:00−7˚sse359173 0.0 1019120
12:00−2˚wsw71174100 0.0 10181082
15:00−5˚wnw469084 0.1 1017631
18:00−5˚wsw1397100 0.9 1019181
21:00−7˚wsw3396100 1.4 1021106
20 january, wed
wed2000:00−9˚w2297100 0.1 102379
03:00−12˚wsw229699 0.1 102422
06:00−12˚wnw1295100 0.0 102520
09:00−12˚nnw119493 0.0 102620
12:00−8˚wnw128741 0.0 1026214
15:00−7˚nw238934 0.0 1026321
18:00−12˚wnw009524 0.0 102821
21:00−13˚s119412 0.0 103021
21 january, thu
thu2100:00−12˚ssw129436 0.0 103121
03:00−13˚sw119418 0.0 103121
06:00−12˚sse11930 0.0 103221
09:00−10˚sse23892 0.0 103329
12:00−4˚s23850 0.0 1032199
15:00−2˚sse23890 0.0 1031208
18:00−4˚sse34850 0.0 103134
21:00−4˚s348047 0.0 103141